Location: Newark
(61.5000°N, 23.7667°E)
Time: 22:20:44
(UTC+00:00)

N. Korean satellite - Visible Passes

Search period start: 22 September 2019 00:00
Search period end: 02 October 2019 00:00
Orbit: 455 x 509 km, 97.2° (Epoch: 22 September)

Date Brightness Start Highest point End Pass type
(mag) Time Alt. Az. Time Alt. Az. Time Alt. Az.
24 Sep 10.1 03:15:20 10° NE 03:17:00 13° E 03:18:40 10° ESE visible
27 Sep 9.8 03:32:27 10° NE 03:34:53 18° E 03:37:20 10° SE visible
28 Sep 10.3 03:08:11 10° ENE 03:09:21 11° E 03:10:31 10° ESE visible
01 Oct 9.9 03:25:01 10° NE 03:27:14 16° E 03:29:26 10° SE visible
